Вернуться в каталог

DELTA 1 DEB

АктивенUNKNOWN
NORAD 10864·DEBRIS·🇺🇸 United States

Запущен Jul 29, 1976 с Vandenberg Space Force Base

Loading…

Ближайшие Пролёты (ближайшие 24 часа)

TLE

СвежийSource: Space-Track

Эпоха: Sep 12, 2026, 10:10 UTC

1 10864U 76077CS  26255.42361991  .00000039  00000-0  99247-3 0  9997
2 10864 101.0986 316.4195 0377044 215.3323 156.5281 11.75894122141597

Отслеживайте DELTA 1 DEB в реальном времени с AllMySat

Download on the App Store